sat.trackr.live / text

‹ back to catalog

STARLINK-6292

NORAD 56775 · 2023-078J

PAYLOAD ACTIVE UNKNOWN

§ Identity

Operator
Country
US
Launch date
2023-05-31
Launch site
AFWTR
Launch vehicle
Mass (kg)
RCS (m²)

Purposes: comms

External: N2YO · Heavens-Above · Gunter

§ Orbital elements

Epoch: 2026-09-20T12:01:19.041312Z

Period
96.11 min
Inclination
70.0005°
Eccentricity
0.0003242
Mean motion
14.98326939 rev/d
Perigee alt
569.8 km
Apogee alt
574.3 km
Semi-major
6,950.2 km
B*
3.5191e-5
RAAN
173.4124°
Arg perigee
269.6137°
Mean anomaly
90.4651°
Rev number
18,284

§ Raw data

STARLINK-62921 56775U 23078J   26263.50091483  .00000327  00000+0  35191-4 0  99932 56775  70.0005 173.4124 0003242 269.6137  90.4651 14.98326939182843

JSON: /api/v1/satellites/56775 · /tle

For live sub-satellite position, see the globe view (requires WebGL).

§ Visibility from observer

Set your observer location to see the next 7 days of passes ≥ 10°. The values pass through the URL so the page stays shareable.

No JS? Fill the form by hand. The geolocation button needs JavaScript.